Location: T�bingen+AIT
(48.5342°N, 9.0700°E)
Time: 15:10:22
(UTC+01:00)

Cosmos 967 Rocket - Pass Details

Date: 14 September 2017
Orbit: 945 x 994 km, 65.8° (Epoch: 17 November)

Event Time Altitude Azimuth Distance (km) Brightness Sun altitude
Rises 21:07:31 0° 211° (SSW) 3,610 7.6 -15.1°
Reaches altitude 10° 21:10:02 10° 210° (SSW) 2,674 6.9 -15.5°
Maximum altitude 21:16:16 81° 125° (SE) 978 4.4 -16.4°
Drops below altitude 10° 21:22:39 10° 38° (NE) 2,723 6.7 -17.4°
Sets 21:25:14 0° 38° (NE) 3,681 7.4 -17.8°
